TOURFACTS.DK  
Stats and Facts from Tour de France.

Tour de France 2018 starts in 258 days
  Riders   Stages   Teams   Summits   Yearly  


 
Search by year

 2017 - St. 21:  14824 starters.
  5131 different riders.
  634 teams.
  2232 stages.
  454 restdays.
  439589.60 km.
  5653 abandonnees.


Top 3
Christopher Froome86:20:55
Rigoberto Uran86:21:49
Romain Bardet86:23:15
Warren Barguil169 pt.
Primoz Roglic80 pt.
Thomas De Gendt64 pt.
Michael Matthews359 pt.
André Greipel234 pt.
Edvald Boasson Hagen220 pt.
Simon Yates86:27:09
Louis Meintjes86:29:15
Emanuel Buchmann86:54:16
Facts from Tour de France 2017
  |   Stages.  |   Stage winners.  |   Days in yellow  |   Average speed.  |   Route.  |   Teams.  |   All riders.  |   Rookies.  |   Withdrawls.  |  

  |   GC.  |   Polka  |   Green  |   White  |   Summits. (In tour)  |   Summits. (Points)  |   Miscellaneous.  |  

Stage 17 on 19 - 07 - 2017
         Owning:    Christopher Froome      Warren Barguil      Michael Matthews      Simon Yates  

Pick a stage:  1 2 3 4 5 6 7 8 9 10 11 12 13 14 15 16 17 18 19 20 21
  La MureSerre-Chevalier | Dist: 183.00 km.
Cat: 2Col d'OrnonAUSMichael Matthews
5 points
 
Cat: HCol de la Croix de FerBELThomas De Gendt
20 points
 
Cat: 1Col du TélégrapheSLOPrimoz Roglic
10 points
 
Cat: HCol du GalibierSLOPrimoz Roglic
20 points
 

Average speed for all riders in stage:  32,885 km./hr.
    Place:Name:Team:Time:Km/h:
SLOPrimoz RoglicNLDTeam Lotto NL - Jumbo05:07:41  +  00:00:00=35,686 
COLRigoberto UranUSACannondale-Drapac Pro Cycling ..05:08:54  +  00:01:13=35,545 
KENChristopher FroomeGBRSky Procycling05:08:54  +  00:01:13=35,545 
4 FRARomain BardetFRAAg2r La Mondiale05:08:54  +  00:01:13=35,545 
5 FRAWarren BarguilDEUTeam Sunweb05:08:54  +  00:01:13=35,545 
6 ESPMikel Landa MeanaGBRSky Procycling05:08:57  +  00:01:16=35,540 
7 ENGDaniel MartinBELQuick-Step Floors05:09:24  +  00:01:43=35,488 
8 ESPAlberto ContadorUSATrek – Segafredo05:09:25  +  00:01:44=35,486 
9 RSALouis MeintjesUAEUAE Team Emirates05:09:25  +  00:01:44=35,486 
10 ITAFabio AruKAZAstana Pro Team05:09:25  +  00:01:44=35,486 
11 SUIMathias FrankFRAAg2r La Mondiale05:09:25  +  00:01:44=35,486 
12 COLDarwin AtapumaUAEUAE Team Emirates05:09:40  +  00:01:59=35,457 
13 BELSerge PauwelsZAFDimension Data05:10:51  +  00:03:10=35,323 
14 ENGSimon YatesAUSOrica - Scott05:10:55  +  00:03:14=35,315 
15 ESPDaniel NavarroFRACofidis – Solutions Crédits05:12:48  +  00:05:07=35,102 
16 ITADamiano CarusoUSABMC Racing Team05:12:48  +  00:05:07=35,102 
17 CZEOndrej CinkBHRBahrain-Merida05:12:48  +  00:05:07=35,102 
18 FRAAmaël MoinardUSABMC Racing Team05:13:41  +  00:06:00=35,003 
19 FRAAlexis VuillermozFRAAg2r La Mondiale05:13:41  +  00:06:00=35,003 
20 FRABrice FeilluFRAFortuneo - Vital Concept05:13:41  +  00:06:00=35,003 
21 ESPMikel NieveGBRSky Procycling05:13:41  +  00:06:00=35,003 
22 GEREmanuel BuchmannDEUBora–Hansgrohe05:15:28  +  00:07:47=34,806 
23 COLNairo QuintanaESPMovistar Team05:15:28  +  00:07:47=34,806 
24 BELTiesj BenootBELLotto Soudal05:16:26  +  00:08:45=34,699 
25 FRATony GallopinBELLotto Soudal05:16:26  +  00:08:45=34,699 
26 NEDBauke MollemaUSATrek – Segafredo05:16:39  +  00:08:58=34,676 
27 KAZAndrey ZeitsKAZAstana Pro Team05:20:23  +  00:12:42=34,271 
28 COLCarlos Alberto BetancurESPMovistar Team05:20:23  +  00:12:42=34,271 
29 CZERoman KreuzigerAUSOrica - Scott05:20:29  +  00:12:48=34,261 
30 BELPieter VanspeybrouckBELWanty – Groupe Gobert05:24:22  +  00:16:41=33,851 
31 NEDMarco MinnaardBELWanty – Groupe Gobert05:24:22  +  00:16:41=33,851 
32 BELThomas DegandBELWanty – Groupe Gobert05:24:22  +  00:16:41=33,851 
33 RSADaryl ImpeyAUSOrica - Scott05:24:24  +  00:16:43=33,847 
34 ITADiego UlissiUAEUAE Team Emirates05:24:24  +  00:16:43=33,847 
35 HRVKristijan DurasekUAEUAE Team Emirates05:24:24  +  00:16:43=33,847 
36 FRARudy MolardFRAFDJ05:24:24  +  00:16:43=33,847 
37 ESPLuis Angel MateFRACofidis – Solutions Crédits05:24:24  +  00:16:43=33,847 
38 FRAGuillaume MartinBELWanty – Groupe Gobert05:24:24  +  00:16:43=33,847 
39 LUXBen GastauerFRAAg2r La Mondiale05:24:24  +  00:16:43=33,847 
40 FRACyril GautierFRAAg2r La Mondiale05:24:24  +  00:16:43=33,847 
41 BELJan BakelantsFRAAg2r La Mondiale05:24:24  +  00:16:43=33,847 
42 USANathan BrownUSACannondale-Drapac Pro Cycling ..05:24:24  +  00:16:43=33,847 
43 FRASylvain ChavanelFRADirect Energie05:24:24  +  00:16:43=33,847 
44 FRAThomas VoecklerFRADirect Energie05:24:24  +  00:16:43=33,847 
45 HRVRobert KiserlovskiCHETeam Katusha - Alpecin05:24:24  +  00:16:43=33,847 
46 BELThomas De GendtBELLotto Soudal05:30:40  +  00:22:59=33,206 
47 POLMichal KwiatkowskiGBRSky Procycling05:30:45  +  00:23:04=33,197 
48 NEDLaurens ten DamDEUTeam Sunweb05:31:29  +  00:23:48=33,124 
49 USAAndrew TalanskyUSACannondale-Drapac Pro Cycling ..05:31:29  +  00:23:48=33,124 
50 FRALilian CalmejaneFRADirect Energie05:32:32  +  00:24:51=33,019 
51 FRARomain HardyFRAFortuneo - Vital Concept05:32:32  +  00:24:51=33,019 
52 ESPJesus HerradaESPMovistar Team05:32:34  +  00:24:53=33,016 
53 FRANicolas RocheUSABMC Racing Team05:32:34  +  00:24:53=33,016 
54 FRARomain SicardFRADirect Energie05:34:28  +  00:26:47=32,828 
55 FRAPierre-Luc PérichonFRAFortuneo - Vital Concept05:34:56  +  00:27:15=32,783 
56 KAZBakhtiyar KozhatayevKAZAstana Pro Team05:36:27  +  00:28:46=32,635 
57 SUIDanilo WyssUSABMC Racing Team05:36:27  +  00:28:46=32,635 
58 FRANicolas EdetFRACofidis – Solutions Crédits05:36:27  +  00:28:46=32,635 
59 FRAMaxime BouetFRAFortuneo - Vital Concept05:36:27  +  00:28:46=32,635 
60 POLPawel PoljanskiDEUBora–Hansgrohe05:36:27  +  00:28:46=32,635 
61 NZLJack BauerBELQuick-Step Floors05:36:27  +  00:28:46=32,635 
62 GERSimon GeschkeDEUTeam Sunweb05:36:27  +  00:28:46=32,635 
63 ITAAlberto BettiolUSACannondale-Drapac Pro Cycling ..05:36:27  +  00:28:46=32,635 
64 AUSMichael MatthewsDEUTeam Sunweb05:36:27  +  00:28:46=32,635 
65 DENMichael ValgrenKAZAstana Pro Team05:36:27  +  00:28:46=32,635 
66 ENGBen SwiftUAEUAE Team Emirates05:36:27  +  00:28:46=32,635 
67 NEDDylan Van BaarleUSACannondale-Drapac Pro Cycling ..05:36:27  +  00:28:46=32,635 
68 GERJasha SütterlinESPMovistar Team05:36:27  +  00:28:46=32,635 
69 ESPJonathan CastroviejoESPMovistar Team05:39:35  +  00:31:54=32,334 
70 CRCAndrey AmadorESPMovistar Team05:39:35  +  00:31:54=32,334 
71 BELGuillaume Van KeirsbulckBELWanty – Groupe Gobert05:41:22  +  00:33:41=32,165 
72 FRAPerrig QuemeneurFRADirect Energie05:41:22  +  00:33:41=32,165 
73 GERMarcus BurghardtDEUBora–Hansgrohe05:41:22  +  00:33:41=32,165 
74 AUSAdam HansenBELLotto Soudal05:41:22  +  00:33:41=32,165 
75 NEDMike TeunissenDEUTeam Sunweb05:41:22  +  00:33:41=32,165 
76 FRAYoann OffredoBELWanty – Groupe Gobert05:41:22  +  00:33:41=32,165 
77 GERNils PolittCHETeam Katusha - Alpecin05:41:22  +  00:33:41=32,165 
78 BELFrederik BackaertBELWanty – Groupe Gobert05:41:22  +  00:33:41=32,165 
79 NZLPaddy BevinUSACannondale-Drapac Pro Cycling ..05:41:22  +  00:33:41=32,165 
80 BELOliver NaesenFRAAg2r La Mondiale05:41:22  +  00:33:41=32,165 
81 SUIMichael SchärUSABMC Racing Team05:41:22  +  00:33:41=32,165 
82 GERNikias ArndtDEUTeam Sunweb05:41:22  +  00:33:41=32,165 
83 FRAPierre-Roger LatourFRAAg2r La Mondiale05:41:22  +  00:33:41=32,165 
84 FRAAxel DomontFRAAg2r La Mondiale05:41:22  +  00:33:41=32,165 
85 NEDRoy CurversDEUTeam Sunweb05:41:22  +  00:33:41=32,165 
86 FRAAngelo TulikFRADirect Energie05:41:22  +  00:33:41=32,165 
87 GERJohn DegenkolbUSATrek – Segafredo05:41:22  +  00:33:41=32,165 
88 AUSJay McCarthyDEUBora–Hansgrohe05:41:22  +  00:33:41=32,165 
89 NEDKoen De KortUSATrek – Segafredo05:41:22  +  00:33:41=32,165 
90 ENGScott ThwaitesZAFDimension Data05:41:22  +  00:33:41=32,165 
91 ETHTsgabu Gebremaryan GrmayBHRBahrain-Merida05:41:22  +  00:33:41=32,165 
92 ENGStephen CummingsZAFDimension Data05:41:22  +  00:33:41=32,165 
93 BELJürgen RoelandtsBELLotto Soudal05:41:22  +  00:33:41=32,165 
94 GERAndré GreipelBELLotto Soudal05:41:22  +  00:33:41=32,165 
95 DDRRüdiger SeligDEUBora–Hansgrohe05:41:22  +  00:33:41=32,165 
96 BELGreg Van AvermaetUSABMC Racing Team05:41:22  +  00:33:41=32,165 
97 AUTBernhard EiselZAFDimension Data05:41:22  +  00:33:41=32,165 
98 ESPHaimar ZubeldiaUSATrek – Segafredo05:41:22  +  00:33:41=32,165 
99 NOREdvald Boasson HagenZAFDimension Data05:41:22  +  00:33:41=32,165 
100 ITAFabio SabatiniBELQuick-Step Floors05:41:22  +  00:33:41=32,165 
101 WALLuke RoweGBRSky Procycling05:41:22  +  00:33:41=32,165 
102 ESPImanol ErvitiESPMovistar Team05:41:22  +  00:33:41=32,165 
103 DENLars BakBELLotto Soudal05:41:22  +  00:33:41=32,165 
104 RSAReinardt Janse Van RensburgZAFDimension Data05:41:22  +  00:33:41=32,165 
105 FRAElie GesbertFRAFortuneo - Vital Concept05:41:22  +  00:33:41=32,165 
106 ARGEduardo SepulvedaFRAFortuneo - Vital Concept05:41:22  +  00:33:41=32,165 
107 BLRVasil KiryienkaGBRSky Procycling05:41:22  +  00:33:41=32,165 
108 SUIStefan KüngUSABMC Racing Team05:41:22  +  00:33:41=32,165 
109 ITAAndrea PasqualonBELWanty – Groupe Gobert05:41:22  +  00:33:41=32,165 
110 SUIReto HollensteinCHETeam Katusha - Alpecin05:41:22  +  00:33:41=32,165 
111 AUSDamien HowsonAUSOrica - Scott05:41:22  +  00:33:41=32,165 
112 UKRAndriy GrivkoKAZAstana Pro Team05:41:22  +  00:33:41=32,165 
113 NORAlexander KristoffCHETeam Katusha - Alpecin05:41:22  +  00:33:41=32,165 
114 FRAJulien SimonFRACofidis – Solutions Crédits05:41:22  +  00:33:41=32,165 
115 ITAMatteo BonoUAEUAE Team Emirates05:41:22  +  00:33:41=32,165 
116 ITAMarco MarcatoUAEUAE Team Emirates05:41:22  +  00:33:41=32,165 
117 BELJens KeukeleireAUSOrica - Scott05:41:22  +  00:33:41=32,165 
118 FRAThomas BoudatFRADirect Energie05:41:22  +  00:33:41=32,165 
119 ESPMarkel IrizarUSATrek – Segafredo05:41:22  +  00:33:41=32,165 
120 NORVegard Stake LaengenUAEUAE Team Emirates05:41:22  +  00:33:41=32,165 
121 FRAFlorian SénéchalFRACofidis – Solutions Crédits05:41:22  +  00:33:41=32,165 
122 GERGianluca BrambillaBELQuick-Step Floors05:41:22  +  00:33:41=32,165 
123 GERChristian KneesGBRSky Procycling05:41:22  +  00:33:41=32,165 
124 PORTiago PintoCHETeam Katusha - Alpecin05:41:22  +  00:33:41=32,165 
125 GERTony MartinCHETeam Katusha - Alpecin05:41:22  +  00:33:41=32,165 
126 CZEZdenek StybarBELQuick-Step Floors05:41:22  +  00:33:41=32,165 
127 NZLDion SmithBELWanty – Groupe Gobert05:41:22  +  00:33:41=32,165 
128 NEDMaurits LammertinkCHETeam Katusha - Alpecin05:41:22  +  00:33:41=32,165 
129 SUIMichael AlbasiniAUSOrica - Scott05:41:22  +  00:33:41=32,165 
130 KAZDmitriy GruzdevKAZAstana Pro Team05:41:22  +  00:33:41=32,165 
131 GERRick ZabelCHETeam Katusha - Alpecin05:41:22  +  00:33:41=32,165 
132 SLOJanez BrajkovicBHRBahrain-Merida05:41:22  +  00:33:41=32,165 
133 COLSergio Luis HenaoGBRSky Procycling05:41:22  +  00:33:41=32,165 
134 POLMaciej BodnarDEUBora–Hansgrohe05:41:22  +  00:33:41=32,165 
135 KAZAlexey LutsenkoKAZAstana Pro Team05:41:22  +  00:33:41=32,165 
136 COLJohan Esteban ChavesAUSOrica - Scott05:41:22  +  00:33:41=32,165 
137 COLJarlinson Pantano GomezUSATrek – Segafredo05:41:22  +  00:33:41=32,165 
138 GERPaul MartensNLDTeam Lotto NL - Jumbo05:41:22  +  00:33:41=32,165 
139 AUTMarco HallerCHETeam Katusha - Alpecin05:41:22  +  00:33:41=32,165 
140 NEDAlbert TimmerDEUTeam Sunweb05:41:22  +  00:33:41=32,165 
141 JPNYukiya ArashiroBHRBahrain-Merida05:41:22  +  00:33:41=32,165 
142 ESPJavier Moreno BazánBHRBahrain-Merida05:41:22  +  00:33:41=32,165 
143 FRALaurent PichonFRAFortuneo - Vital Concept05:41:22  +  00:33:41=32,165 
144 FRAOlivier Le GacFRAFDJ05:41:22  +  00:33:41=32,165 
145 SLOGrega BoleBHRBahrain-Merida05:41:22  +  00:33:41=32,165 
146 USATaylor PhinneyUSACannondale-Drapac Pro Cycling ..05:41:22  +  00:33:41=32,165 
147 NEDRamon SinkeldamDEUTeam Sunweb05:41:22  +  00:33:41=32,165 
148 SLOBorut BozicBHRBahrain-Merida05:41:22  +  00:33:41=32,165 
149 NEDDylan GroenewegenNLDTeam Lotto NL - Jumbo05:41:22  +  00:33:41=32,165 
150 NEDTimo RoosenNLDTeam Lotto NL - Jumbo05:41:22  +  00:33:41=32,165 
151 GERRobert WagnerNLDTeam Lotto NL - Jumbo05:41:22  +  00:33:41=32,165 
152 ITASonny ColbrelliBHRBahrain-Merida05:41:22  +  00:33:41=32,165 
153 FRAAdrien PetitFRADirect Energie05:41:22  +  00:33:41=32,165 
154 RSAJaco VenterZAFDimension Data05:41:22  +  00:33:41=32,165 
155 NEDTom LeezerNLDTeam Lotto NL - Jumbo05:41:22  +  00:33:41=32,165 
156 BELDimitri ClaeysFRACofidis – Solutions Crédits05:41:22  +  00:33:41=32,165 
157 FRAChristophe LaporteFRACofidis – Solutions Crédits05:41:22  +  00:33:41=32,165 
158 AUSSimon ClarkeUSACannondale-Drapac Pro Cycling ..05:41:22  +  00:33:41=32,165 
159 FRAFlorian VachonFRAFortuneo - Vital Concept05:41:22  +  00:33:41=32,165 
160 FRACyril LemoineFRACofidis – Solutions Crédits05:41:22  +  00:33:41=32,165 
161 AUTMichael GoglUSATrek – Segafredo05:41:22  +  00:33:41=32,165 
162 ITAAlessandro De MarchiUSABMC Racing Team05:41:22  +  00:33:41=32,165 
163 FRAPierre RollandUSACannondale-Drapac Pro Cycling ..05:41:22  +  00:33:41=32,165 
164 BELJulien VermoteBELQuick-Step Floors05:41:22  +  00:33:41=32,165 
165 FRANacer BouhanniFRACofidis – Solutions Crédits05:41:22  +  00:33:41=32,165 
166 FRAYohann GèneFRADirect Energie05:41:22  +  00:33:41=32,165 
167 ITADaniele BennatiESPMovistar Team05:41:22  +  00:33:41=32,165 
168 ITADavide CimolaiFRAFDJ05:41:22  +  00:33:41=32,165 
169 AUSMathew HaymanAUSOrica - Scott05:41:22  +  00:33:41=32,165 

Withdrawls: 4
 
Rider
Team
Reason
78  FRAThibaut PinotFRAFDJDid not finish
101  GERMarcel KittelBELQuick-Step FloorsDid not finish
138  GERMarcel SiebergBELLotto SoudalDid not start
211  ENGDaniel McLayFRAFortuneo - Vital ConceptDid not finish

Todays birthdays.

1890  Maurice Lartigue
1892  Mosé Arosio
1896  Henri Drapel
1919  Bernardo Capo
1920  Kléber Piot
1926  Victorio Garcia
1946  Lucien Van Impe
1946  Pierfranco Vianelli
1948  Jacques Boulas
1948  Yves Hézard
1962  Jan Goessens
1962  Jens Veggerby
1980  Patrik Sinkewitz
1986  Wesley Sulzberger